SCP
0 0 0 0 0 0 0 0 0 0 0 0 0 0 0 0 0 0 0 0 0 0 0 0 0 0 0 0 0 0 0 0 0 0 0 0 0 0
0 0 0 0 0 0 0 0 0 0 0 0 0 0 0 0 0 0 0 0 0 0 0 0 0 0 0 0 0 0 0 0 0 0 0 0 0 0
0 0 0 0 0 0 0 0 0 0 0 0 0 0 0 0 0 0 0 0 0 0 0 0 0 0 0 0 0 0 0 0 0 0 0 0 0 0
0 0 0 0 0 0 0 0 0 0 0 0 0 0 0 0 0 0 0 0 0 0 0 0 0 0 0 0 0 0 0 0 0 0 0 0 0 0
0 0 0 0 0 0 0 0 0 0 0 0 0 0 0 0 0 0 0 0 0 0 0 0 0 0 0 0 0 0 0 0 0 0 0 0 0 0
0 0 0 0 0 0 0 0 0 0 0 0 0 0 0 0 0 0 0 0 0 0 0 0 0 0 0 0 0 0 0 0 0 0 0 0 0 0
0 0 0 0 0 0 0 0 0 0 0 0 0 0 0 0 0 0 0 0 0 0 0 0 0 0 0 0 0 0 0 0 0 0 0 0 0 0
0 0 0 0 0 0 0 0 0 0 0 0 0 0 0 0 0 0 0 0 0 0 0 0 0 0 0 0 0 0 0 0 0 0 0 0 0 0
0 0 0 0 0 0 0 0 0 0 0 0 0 0 0 0 0 0 0 0 0 0 0 0 0 0 0 0 0 0 0 0 0 0 0 0 0 0
0 0 0 0 0 0 0 0 0 0 0 0 0 0 0 0 0 0 0 0 0 0 -0 -0 0 0 0 0 0 0 0 0 0 0 0 0 0 0
0 0 0 0 0 0 0 0 0 0 0 0 0 0 0 0 0 0 0 0 0 0 -0 -0 0 0 0 0 0 0 0 0 0 0 0 0 0 0
0 0 0 0 0 0 0 0 0 0 0 0 0 0 0 0 0 0 0 0 0 0 -0 -0 0 0 0 0 0 0 0 0 0 0 0 0 0 0
0 0 0 0 0 0 0 0 0 0 0 0 0 0 0 0 0 0 0 0 0 0 0 0 0 0 0 0 -0 0 0 0 0 0 0 0 0 0
0 0 0 0 0 0 0 0 0 0 0 0 0 0 0 0 0 0 0 0 0 0 0 0 0 0 0 0 -0 -0 0 0 0 0 0 0 0 0
0 0 0 0 0 0 0 0 0 0 0 0 0 0 0 0 0 0 0 0 0 0 0 0 0 0 0 0 -0 0 0 0 0 0 0 0 0 0
0 0 0 0 0 0 0 0 0 0 0 0 0 0 0 0 0 0 0 0 0 0 0 0 0 0 0 0 -0 0 0 0 0 0 0 0 0 0
0 0 0 0 0 0 0 0 0 0 0 0 0 0 0 0 0 0 0 0 0 0 0 0 0 0 0 0 0 0 0 0 0 0 0 0 0 0
0 0 0 0 0 0 0 0 0 0 0 0 0 0 0 0 0 0 0 0 0 0 0 0 0 0 0 0 0 0 0 0 0 0 0 0 0 0
0 0 0 0 0 0 0 0 0 0 0 0 0 0 0 0 0 0 0 0 0 0 0 0 0 0 0 0 0 0 0 0 0 0 0 0 0 0
0 0 0 0 0 0 0 0 0 0 0 0 0 0 0 0 0 0 0 0 0 0 0 0 0 0 0 0 0 0 0 0 0 0 0 0 0 0
0 0 0 0 0 0 0 0 0 0 0 0 0 0 0 0 0 0 0 0 0 0 0 0 0 0 0 0 0 0 0 0 0 0 0 0 0 0
0 0 0 0 0 0 0 0 0 0 0 0 0 0 0 0 0 0 0 0 0 0 0 0 0 0 0 0 0 0 0 0 0 0 0 0 0 0
0 0 0 0 0 0 0 0 0 0 0 0 0 0 0 0 0 0 0 0 0 0 0 0 0 0 0 0 0 0 0 0 0 0 0 0 0 0
Wind_Speed
3 3 3 2 2 2 2 3 3 3 4 3 2 2 2 2 4 3 3 6 7 7 7 8 9 10 10 11 12 13 13 13 13 13 14 14 14 14
2 3 3 2 2 2 2 3 3 4 4 3 3 2 2 2 4 3 3 6 6 7 8 8 9 10 10 11 12 13 13 13 13 14 14 14 15 14
3 3 4 3 2 2 2 2 3 3 5 4 2 2 2 2 3 3 3 3 4 7 8 9 10 10 11 12 13 13 13 13 14 14 14 15 15 15
4 4 4 3 3 3 3 3 3 3 4 6 3 2 3 3 3 3 4 3 4 7 9 10 10 10 11 12 13 13 13 13 13 14 14 15 15 14
5 5 4 4 4 3 3 4 3 3 3 4 4 2 2 2 3 3 4 3 4 5 8 9 10 11 12 12 13 12 12 13 13 14 14 15 14 14
4 4 5 5 5 5 4 5 4 3 3 3 4 3 2 2 1 2 4 3 4 4 6 7 8 10 12 12 13 12 12 13 13 14 14 14 15 14
4 4 5 5 6 5 4 4 4 4 3 3 4 3 3 2 2 2 4 4 4 2 3 4 4 5 6 9 11 12 13 13 13 14 14 14 15 15
5 4 4 5 6 7 8 7 6 5 5 4 4 5 5 3 2 2 3 3 4 1 2 5 3 5 5 5 10 13 13 14 13 14 14 15 15 15
4 3 3 4 5 5 7 8 7 8 8 5 6 6 5 4 3 4 4 4 5 3 2 5 3 6 5 6 12 14 14 13 14 14 15 15 15 15
4 4 4 3 3 4 4 5 5 5 6 5 5 5 4 3 4 4 4 5 5 3 2 5 4 5 5 5 11 12 12 13 13 14 14 14 14 15
4 3 4 4 5 5 3 4 4 4 5 5 6 6 6 5 3 1 2 3 5 4 2 3 3 4 5 5 6 10 12 13 14 14 14 14 14 13
3 3 5 5 6 6 4 4 5 4 2 2 3 5 4 5 6 4 4 4 4 4 3 3 3 2 5 4 4 4 6 11 13 14 14 14 13 7
3 3 4 7 8 8 6 4 6 4 2 2 3 3 2 3 3 4 4 5 5 6 3 2 2 2 4 5 4 4 4 5 6 8 11 13 13 9
4 3 4 7 8 8 6 5 6 3 1 2 3 3 4 4 3 4 5 5 6 7 5 4 4 4 4 5 6 4 4 4 5 6 5 9 10 12
4 6 6 7 7 5 6 6 3 2 2 3 4 4 4 3 3 3 4 5 6 7 6 6 6 5 5 7 6 5 5 5 5 5 5 5 5 5
4 4 6 6 4 3 2 3 2 3 3 4 4 3 2 2 3 3 3 3 4 6 6 7 7 7 7 8 8 8 6 6 5 5 6 6 6 6
2 1 1 1 2 2 2 2 2 2 3 3 3 3 3 3 4 3 3 3 4 5 5 4 5 6 8 7 8 9 8 7 7 6 6 7 7 6
2 2 2 2 3 3 3 3 3 3 3 3 3 3 4 4 4 3 3 4 6 6 6 4 3 3 4 6 10 10 8 7 6 5 5 7 8 6
2 3 3 3 3 3 3 4 4 4 3 3 4 4 4 4 4 4 4 4 6 6 6 4 3 4 5 7 5 7 6 5 5 5 5 6 7 7
3 3 4 4 4 4 4 4 4 3 3 3 4 4 4 4 4 5 5 5 5 5 5 4 4 5 7 7 6 5 7 6 5 6 5 5 6 9
3 4 4 4 4 4 4 4 4 4 4 4 4 4 4 4 5 5 5 6 6 5 6 6 6 6 5 3 5 6 5 7 8 6 5 5 6 5
4 4 4 4 4 4 4 4 4 4 4 4 4 4 4 5 6 6 6 6 6 6 7 6 4 3 3 5 7 7 7 6 7 11 11 9 5 5
4 4 4 4 4 4 4 4 5 5 4 4 4 4 5 5 5 6 6 6 5 6 6 5 4 3 3 5 6 6 7 7 5 5 5 9 12 14
Wind_Direction
211 211 222 235 223 220 213 204 208 252 264 245 246 249 255 257 285 276 270 284 282 282 286 289 291 292 293 294 295 296 298 299 297 298 297 295 296 292
212 208 225 237 231 219 215 220 217 225 254 254 241 261 268 280 289 278 266 288 280 281 284 288 288 289 291 292 292 293 294 296 296 295 296 293 293 291
219 216 229 227 226 226 220 217 222 219 247 271 258 267 250 271 292 286 269 260 270 275 280 285 285 286 289 291 291 290 291 292 293 294 293 294 293 291
224 222 229 223 226 222 217 222 225 222 232 263 273 265 257 268 284 286 287 277 273 277 280 282 282 284 288 291 291 290 289 288 289 291 293 293 291 290
224 222 225 217 227 225 220 223 227 231 231 246 268 264 266 280 294 290 285 277 280 279 282 282 279 282 285 288 290 288 287 285 285 288 290 292 289 289
233 231 229 222 227 225 224 223 220 224 229 239 258 266 261 266 273 288 296 288 287 285 283 280 279 283 284 286 288 286 285 283 284 286 287 288 287 286
238 236 234 233 235 229 226 219 214 221 226 235 250 259 257 261 262 267 282 298 287 270 289 277 276 275 278 280 282 280 280 281 284 286 287 286 286 285
239 241 239 235 238 238 238 232 221 220 227 231 243 248 255 251 256 259 276 300 295 285 293 283 266 271 269 262 276 278 278 280 283 286 287 287 286 285
245 247 249 245 234 235 238 240 239 238 233 227 237 243 247 240 237 255 257 258 262 269 288 280 269 266 267 270 279 278 279 280 282 286 288 287 288 288
252 247 248 252 246 241 235 237 242 246 245 239 240 245 244 237 227 240 255 266 272 260 236 268 280 277 282 275 279 278 279 281 285 289 290 288 288 290
262 258 250 245 251 244 242 244 250 259 262 249 250 257 260 256 244 233 246 265 277 267 218 250 278 290 286 275 277 283 285 286 288 290 290 290 290 293
267 258 252 252 255 244 234 231 247 257 250 261 261 267 264 256 247 230 224 238 258 269 220 229 262 298 295 277 275 282 285 286 288 289 290 289 291 289
263 263 258 259 258 249 244 234 248 263 241 244 256 264 269 259 251 241 231 231 240 250 233 214 246 247 256 288 289 273 269 278 281 280 285 287 289 285
258 261 259 258 256 254 247 248 262 265 235 242 251 255 255 255 254 248 245 245 246 253 248 219 228 230 249 271 278 284 278 274 274 274 274 282 283 284
263 265 267 264 260 253 249 253 248 223 230 242 251 257 257 257 259 260 257 255 260 258 251 237 237 241 239 250 264 273 290 283 269 269 272 270 267 270
268 269 265 262 259 264 271 254 234 226 228 241 255 264 270 265 259 254 258 264 272 272 253 242 241 238 246 248 255 266 262 269 277 274 275 270 263 256
276 281 280 276 254 253 254 250 241 232 239 249 256 263 264 262 266 265 258 254 255 271 278 266 251 246 245 249 255 256 261 263 266 275 277 275 267 258
239 243 246 245 248 251 251 254 246 245 248 252 254 259 263 263 267 265 260 255 259 264 268 272 279 279 269 256 236 252 257 261 268 267 263 270 276 270
234 243 246 248 250 249 248 246 249 252 248 245 250 255 261 266 268 267 263 262 265 268 267 261 253 247 264 275 267 235 250 265 271 269 262 258 268 275
237 243 247 251 252 252 254 257 260 260 251 249 252 254 253 256 262 264 263 264 269 276 279 268 250 240 240 259 272 272 260 257 263 270 275 276 273 278
245 244 247 249 252 254 255 255 254 256 255 252 251 251 250 252 258 261 264 266 266 268 270 271 268 268 264 262 269 275 272 261 260 259 266 277 285 286
253 253 254 252 249 250 250 250 253 253 250 248 250 252 250 248 255 259 260 263 263 264 271 280 286 277 252 247 264 277 285 286 278 277 266 258 259 257
253 254 257 259 254 247 246 247 248 252 250 248 249 249 249 252 255 257 259 259 264 268 273 280 281 262 254 258 269 276 282 288 295 296 282 273 269 270